Temperature
12 12 12 12 12 12 13 13 13 13 13 13 14 13 14 14 14 14 14 14 14 14 14 14 14 13 13 13 13 13 13 13 13 13 12 12 13 13 13 12 12 12 12
12 12 12 12 12 12 12 13 13 13 13 14 14 14 14 14 14 14 14 14 14 14 14 14 13 13 13 13 13 13 13 13 13 12 12 12 12 11 12 12 12 11 11
12 12 12 12 12 12 12 13 13 13 13 13 13 13 13 13 13 13 13 14 14 14 13 13 13 13 13 13 13 13 13 13 13 12 12 12 13 11 10 11 11 11 10
11 12 12 12 12 12 12 13 13 13 13 13 13 13 13 13 13 13 13 13 13 13 13 13 13 13 13 13 13 13 13 12 12 12 12 11 11 10 10 9 10 10 9
11 11 12 12 12 12 12 13 13 13 13 13 13 13 13 13 13 13 13 13 13 13 13 13 13 13 13 13 13 13 12 12 12 12 12 11 11 10 9 9 9 8 8
11 11 11 12 12 12 12 12 12 13 13 13 13 13 13 13 13 12 12 13 13 13 13 13 12 12 12 12 12 12 12 12 12 12 11 11 10 10 9 8 8 7 7
10 10 11 11 11 12 12 12 12 12 12 12 12 12 12 12 12 12 12 12 12 12 12 12 12 12 12 12 12 12 12 12 12 11 11 11 10 10 9 8 7 7 6
10 10 10 11 11 11 12 12 12 12 12 12 12 12 12 12 12 12 12 12 12 12 12 12 12 12 12 12 12 12 12 12 11 11 11 10 10 10 9 8 7 6 6
9 10 10 11 11 11 11 11 12 12 12 12 12 12 12 12 12 12 11 11 11 12 11 11 11 11 11 11 11 11 11 11 11 10 10 10 10 9 8 7 7 6 5
9 9 10 10 11 11 11 11 11 11 12 12 11 11 11 11 11 11 11 11 11 11 11 11 11 11 11 11 11 11 11 10 10 10 10 9 9 8 8 7 6 6 5
8 8 9 10 10 10 11 11 11 11 11 11 11 11 11 11 11 11 11 11 11 11 11 11 10 10 10 10 10 10 10 10 10 10 9 9 8 8 7 7 6 5 4
7 8 8 9 9 10 10 10 10 10 11 11 11 11 11 11 11 11 10 10 10 10 10 10 10 10 10 10 10 10 9 9 9 9 9 8 8 7 7 6 5 5 4
7 7 8 8 9 9 9 9 10 10 10 10 10 10 10 10 10 10 10 10 10 10 10 9 9 9 9 9 9 9 9 9 8 8 8 7 7 6 6 5 5 4 3
7 7 7 7 8 8 8 9 9 9 9 9 9 9 10 10 10 10 9 9 9 9 9 9 9 9 9 9 8 8 8 8 8 7 7 7 6 6 5 5 4 4 3
6 7 7 7 7 7 8 8 8 8 8 9 9 9 9 9 9 9 9 9 8 8 8 8 8 8 8 8 8 8 8 7 7 7 7 6 6 5 4 4 4 3 3
5 6 6 6 7 7 7 7 7 7 8 8 8 8 8 8 8 8 8 8 8 8 8 8 7 7 8 7 7 7 7 7 7 6 6 6 5 5 4 4 3 3 3
5 5 6 6 6 6 6 6 7 7 7 7 7 7 7 7 7 7 7 7 7 7 7 7 7 7 7 7 7 6 6 6 6 6 5 5 4 4 3 3 3 2 2
5 5 5 5 5 6 6 6 6 6 6 6 6 6 7 7 6 6 6 6 6 6 6 6 6 6 6 6 6 6 6 5 5 5 4 4 4 3 3 3 2 2 2
4 4 5 5 5 5 5 5 5 5 5 5 5 6 6 6 6 6 6 6 6 6 6 6 6 6 6 6 5 5 5 5 4 4 4 3 3 3 2 2 2 1 2
4 4 4 4 4 4 4 4 4 4 4 5 5 5 5 5 5 5 5 5 5 5 5 5 5 5 5 5 5 4 4 4 4 3 3 3 2 2 2 1 1 1 1
3 3 3 3 3 4 4 4 4 4 4 4 4 4 4 4 4 4 4 4 4 4 4 4 4 4 4 4 4 4 3 3 3 3 3 2 2 2 1 1 1 1 0
3 3 3 3 3 3 3 3 3 3 3 3 3 3 3 4 4 4 4 4 4 4 4 4 4 4 4 3 3 3 3 3 2 2 2 2 1 1 1 0 0 -0 -0
2 2 2 2 2 2 2 2 2 2 2 2 2 3 3 3 3 3 3 3 3 3 3 3 3 3 3 3 2 2 2 2 2 1 1 1 1 0 -0 -0 -0 -1 -1
2 1 1 1 2 2 1 1 1 1 2 2 2 2 2 2 2 2 2 2 2 2 2 2 2 2 2 2 2 2 2 1 1 1 0 0 -0 -0 -0 -1 -1 -1 -1
1 1 1 1 1 1 1 1 1 1 1 1 1 1 1 2 2 2 2 2 2 2 2 2 2 2 2 2 2 1 1 1 1 0 -0 -0 -1 -1 -1 -1 -1 -1 -1
0 0 0 0 0 0 -0 -0 -0 -0 -0 0 0 0 1 1 1 1 1 1 1 1 1 1 1 1 1 1 1 1 1 1 0 -0 -0 -0 -0 -1 -1 -1 -1 -1 -1
Wind_Speed
6 7 8 8 9 10 11 12 13 12 10 9 9 8 8 8 8 8 10 12 11 11 9 6 7 6 6 6 6 5 5 4 3 3 3 3 2 1 0 1 1 2 3
6 7 8 9 10 10 11 13 13 12 12 9 8 6 7 6 7 7 9 11 11 11 9 8 6 6 5 6 6 6 4 4 3 3 3 3 4 3 1 1 1 2 3
7 7 8 8 9 9 10 10 11 11 11 10 7 6 5 4 5 7 7 9 10 10 9 8 7 6 6 6 7 7 7 5 4 4 4 3 3 2 3 1 1 1 1
6 6 6 6 8 9 8 8 8 10 10 10 9 11 8 7 7 7 7 8 9 9 9 9 8 7 6 6 6 6 6 6 5 4 4 5 3 4 3 3 2 1 0
4 4 5 5 5 6 7 7 7 8 8 9 10 10 8 6 5 6 7 7 7 8 9 9 8 7 6 7 7 6 6 5 6 5 4 4 4 6 5 5 3 3 2
3 3 2 2 3 4 5 6 6 6 6 7 8 9 9 8 8 8 8 7 5 6 8 8 8 8 7 7 7 7 7 6 6 5 4 4 4 5 5 6 5 4 2
4 4 3 2 2 3 4 4 6 6 6 8 8 9 9 9 10 9 9 8 7 6 8 8 8 7 7 7 7 6 6 6 6 5 4 4 4 3 4 5 5 4 3
5 5 4 3 2 2 2 3 5 5 5 6 6 7 8 7 7 8 8 8 7 7 8 8 8 8 8 7 6 5 6 5 5 4 4 4 3 3 4 4 4 4 4
7 6 6 5 4 3 2 1 3 3 3 4 4 6 7 7 7 7 7 6 6 6 9 8 8 7 7 7 7 5 6 5 5 5 5 4 3 3 3 3 4 4 4
8 7 6 6 5 4 3 2 1 2 2 3 3 3 5 6 6 6 7 8 8 8 9 9 8 8 7 7 7 6 6 7 6 4 5 4 3 3 3 3 3 4 4
8 7 6 6 5 5 4 3 3 2 1 1 2 2 3 4 5 6 7 7 8 9 10 9 9 9 8 7 7 6 7 7 6 6 5 5 4 3 3 3 3 3 4
8 8 7 7 6 6 5 5 4 3 2 1 1 2 2 3 4 5 6 7 8 9 9 9 9 9 9 8 8 8 8 8 7 7 6 6 4 4 3 3 3 3 4
9 8 8 8 7 6 6 5 5 4 3 1 1 1 2 3 4 5 5 6 7 8 8 9 9 9 9 8 8 8 8 7 7 7 7 6 6 5 4 4 3 3 3
8 9 8 8 7 7 6 5 5 4 3 2 1 2 3 4 4 4 5 6 8 8 9 9 9 8 8 8 8 8 8 7 7 6 6 6 5 5 5 4 4 3 4
8 9 8 8 7 7 7 6 5 5 4 3 2 2 3 3 4 5 5 6 7 8 8 9 8 8 8 8 9 8 8 8 7 7 6 5 5 4 4 3 4 4 4
7 8 8 8 8 8 7 7 6 6 5 4 3 3 2 3 4 4 5 6 7 7 8 9 9 9 7 10 11 9 8 8 8 7 6 6 6 6 6 5 4 3 4
7 7 8 8 8 8 8 7 7 6 5 4 4 3 3 3 3 4 5 6 7 8 8 9 9 9 9 13 13 12 8 8 7 7 7 6 6 7 5 6 5 4 3
7 7 7 8 8 8 8 7 7 6 5 5 4 3 3 4 4 5 6 6 7 8 8 9 9 9 10 14 14 13 8 7 7 8 8 7 8 7 7 6 5 4 3
6 7 7 8 8 8 8 7 7 6 6 6 6 5 5 5 5 6 7 6 7 7 7 7 8 9 10 14 15 13 8 7 8 7 8 8 8 10 10 7 6 5 4
6 7 7 7 8 8 8 7 7 7 7 7 7 7 6 6 7 7 6 6 6 7 7 7 8 9 10 14 16 14 7 7 7 7 8 10 10 11 12 8 7 7 5
6 6 7 7 7 8 8 7 7 8 8 8 8 7 7 7 7 6 6 6 6 7 7 8 8 9 10 13 16 16 8 8 7 7 7 8 13 13 13 11 7 7 6
6 7 7 7 7 7 7 8 8 9 9 9 8 8 7 6 5 6 6 6 7 7 8 7 7 7 8 10 14 17 14 11 8 7 6 7 13 14 14 11 9 9 8
6 7 7 8 7 7 7 8 9 9 9 9 9 8 7 6 5 6 6 6 7 7 7 7 7 7 6 9 15 17 17 16 9 7 8 9 12 13 11 13 12 11 8
6 7 7 8 8 8 8 8 9 9 9 9 9 7 7 6 5 5 5 6 7 7 7 7 7 6 6 7 8 9 10 13 11 7 9 12 12 10 9 9 10 9 8
6 6 7 8 9 9 9 9 9 9 9 9 8 7 6 6 5 5 5 7 7 7 7 7 7 7 8 10 13 10 9 9 8 8 6 7 7 8 8 8 8 8 8
6 7 7 8 9 9 9 9 9 8 9 8 7 6 5 5 5 5 5 8 9 10 12 10 8 8 9 10 14 16 15 14 14 10 7 8 9 9 9 9 9 9 9
Wind_Direction
221 209 203 206 206 206 204 204 197 194 190 182 179 181 187 188 188 189 190 192 192 191 192 193 196 197 203 205 207 211 216 225 239 247 252 241 238 248 29 17 16 42 39
217 209 203 203 205 208 208 208 200 194 193 190 182 182 180 187 188 183 187 191 190 188 187 189 190 194 203 207 208 209 214 214 220 239 255 252 214 184 150 76 58 54 56
206 205 202 207 204 210 213 214 206 197 195 187 175 167 165 166 179 184 187 190 186 185 184 184 185 191 201 207 208 208 214 214 210 228 245 256 259 231 189 160 138 86 72
200 199 193 196 200 206 209 206 205 197 194 190 187 187 191 196 197 189 188 186 187 187 186 185 185 191 197 204 206 210 215 221 216 212 236 257 274 259 250 196 183 152 96
195 197 191 191 197 201 202 195 197 192 187 191 196 197 199 200 185 180 184 187 187 187 186 185 184 189 195 200 198 199 206 219 225 216 214 226 238 243 251 254 227 212 195
144 143 152 163 174 177 184 185 187 193 195 196 201 202 202 195 185 188 191 192 188 190 189 183 185 188 194 193 193 195 199 208 215 216 216 220 224 225 235 250 254 253 217
103 110 119 136 148 152 153 175 183 181 188 197 205 209 211 205 201 200 201 197 194 197 193 185 186 187 190 187 184 187 190 199 202 205 211 221 232 236 239 250 256 257 245
82 85 88 83 91 121 149 176 178 175 185 197 205 210 212 213 211 205 203 204 202 196 185 185 183 181 179 176 177 177 179 184 191 199 204 210 213 219 223 233 242 253 243
67 68 66 65 63 68 86 173 178 177 182 196 202 210 210 210 215 212 208 205 200 185 178 179 178 174 172 172 170 178 177 176 184 190 195 202 196 204 217 226 232 243 254
60 60 53 51 48 45 48 53 116 154 176 189 191 199 201 206 207 206 205 197 190 180 176 178 175 171 170 170 173 172 175 175 177 180 186 187 187 191 200 215 228 238 249
50 48 46 43 42 41 38 37 43 67 110 177 187 186 196 203 203 206 203 193 184 179 180 177 175 173 172 175 176 178 176 179 176 179 185 185 185 192 194 202 215 224 232
49 47 47 44 41 35 29 24 19 22 16 349 219 203 198 199 200 198 193 186 179 175 176 176 175 175 177 179 180 179 181 182 182 183 184 185 183 190 192 203 212 219 224
46 45 43 39 34 31 26 21 16 8 358 348 249 212 206 203 200 196 186 182 177 174 174 175 177 177 177 178 182 180 181 183 184 184 187 186 188 193 193 199 203 209 219
37 36 35 31 25 22 18 11 5 359 348 323 270 236 225 214 201 190 186 184 180 177 178 178 178 177 176 176 176 178 179 178 178 180 184 186 193 196 192 195 200 202 213
26 23 19 16 14 13 10 3 355 349 338 318 289 268 251 224 202 190 186 187 185 182 179 177 176 175 176 179 178 178 178 176 176 177 180 181 178 182 193 198 197 199 209
17 11 7 3 2 360 355 351 347 341 330 315 300 282 253 229 211 199 189 188 188 184 181 181 179 180 183 179 181 178 178 178 179 178 177 171 172 179 189 189 195 211 218
5 360 356 354 350 346 340 337 334 329 323 314 303 287 262 240 224 207 201 199 194 189 188 188 186 188 185 181 184 185 180 181 182 180 179 178 182 183 183 177 179 189 213
354 351 348 345 341 338 335 331 328 323 319 312 304 290 269 251 232 217 213 209 202 199 196 193 191 190 189 187 186 183 183 184 186 189 190 188 187 187 186 190 195 200 198
345 341 339 335 335 337 336 331 327 323 319 315 309 297 275 256 240 229 223 215 209 208 206 198 193 193 193 191 189 182 184 188 191 194 197 197 197 188 188 192 198 202 196
339 335 334 334 335 337 335 330 327 323 319 315 306 296 279 261 249 238 227 219 213 211 206 204 203 200 199 193 191 188 190 193 191 193 198 204 204 192 194 200 201 207 200
332 332 331 333 333 333 331 326 325 322 318 311 302 293 280 267 256 245 228 217 210 208 208 207 207 206 204 197 196 196 197 195 192 195 198 201 202 203 204 208 213 211 196
331 331 329 328 329 330 327 323 321 320 316 310 302 294 286 275 257 242 230 217 209 208 209 209 209 209 206 205 203 203 205 199 198 202 202 198 199 205 207 209 209 203 197
326 327 324 321 323 327 324 317 318 318 314 309 303 297 289 276 260 241 229 218 212 212 210 209 212 210 204 206 209 210 209 207 205 205 201 196 198 203 209 212 206 202 203
320 322 319 318 320 324 321 315 315 315 312 308 306 301 292 283 270 252 233 226 220 217 214 213 214 212 206 204 201 206 211 209 208 202 200 201 203 204 207 206 207 209 208
314 314 312 311 314 318 316 315 315 313 310 306 302 300 294 287 275 260 246 237 235 227 222 220 214 209 216 213 202 196 198 197 194 178 179 186 190 198 202 206 208 205 204
307 308 309 309 311 313 312 314 315 312 307 304 303 299 294 288 280 273 269 246 243 241 237 235 228 226 227 216 209 208 206 200 190 181 189 197 201 204 204 205 206 206 209
Height
1465 1468 1470 1472 1475 1478 1481 1484 1487 1491 1495 1499 1502 1506 1510 1513 1517 1520 1523 1526 1529 1531 1533 1535 1537 1538 1540 1541 1542 1543 1544 1544 1544 1544 1544 1543 1542 1541 1540 1539 1539 1538 1537
1464 1466 1468 1470 1473 1475 1479 1482 1485 1489 1492 1496 1500 1503 1507 1510 1513 1516 1519 1522 1525 1528 1529 1531 1533 1535 1537 1538 1539 1540 1541 1541 1542 1542 1542 1542 1542 1538 1538 1537 1536 1535 1535
1460 1463 1466 1467 1470 1473 1476 1479 1481 1485 1489 1493 1497 1500 1504 1507 1509 1512 1515 1518 1521 1524 1526 1528 1530 1532 1534 1535 1536 1537 1538 1538 1539 1539 1540 1540 1539 1538 1536 1534 1533 1533 1532
1458 1460 1463 1465 1467 1471 1473 1476 1479 1482 1486 1490 1493 1496 1499 1502 1505 1509 1511 1514 1517 1519 1521 1523 1525 1528 1530 1531 1532 1534 1534 1535 1535 1535 1535 1536 1535 1535 1534 1532 1530 1530 1529
1456 1458 1461 1463 1465 1468 1471 1474 1477 1479 1483 1486 1489 1493 1496 1499 1502 1505 1507 1510 1512 1514 1516 1519 1521 1523 1525 1527 1528 1529 1530 1531 1531 1531 1531 1530 1530 1530 1531 1530 1529 1527 1526
1455 1457 1460 1462 1464 1466 1469 1471 1474 1476 1479 1482 1485 1488 1492 1495 1498 1500 1502 1505 1507 1509 1511 1513 1516 1519 1521 1522 1524 1525 1526 1526 1526 1526 1526 1526 1526 1526 1526 1526 1525 1524 1522
1456 1457 1459 1461 1463 1464 1466 1469 1472 1474 1476 1480 1482 1484 1487 1490 1492 1495 1498 1500 1502 1504 1506 1508 1510 1513 1515 1517 1518 1519 1520 1521 1521 1521 1522 1521 1521 1521 1521 1521 1521 1520 1519
1457 1458 1460 1461 1463 1464 1466 1468 1470 1472 1474 1477 1479 1481 1484 1486 1488 1490 1493 1495 1497 1499 1501 1503 1505 1507 1510 1512 1513 1514 1515 1516 1517 1517 1517 1517 1516 1516 1516 1516 1517 1516 1515
1458 1459 1460 1462 1463 1464 1465 1467 1469 1471 1472 1474 1476 1478 1480 1481 1484 1486 1488 1490 1492 1494 1496 1498 1499 1502 1504 1507 1508 1509 1510 1511 1512 1512 1512 1512 1512 1511 1511 1511 1512 1513 1513
1460 1461 1462 1462 1464 1465 1466 1467 1468 1470 1471 1473 1474 1475 1476 1478 1481 1482 1484 1486 1487 1489 1491 1493 1495 1497 1499 1501 1503 1504 1505 1506 1506 1507 1507 1507 1507 1507 1506 1507 1507 1507 1508
1463 1463 1463 1464 1465 1465 1466 1467 1468 1469 1470 1471 1472 1473 1474 1476 1477 1478 1480 1481 1483 1484 1486 1488 1490 1492 1494 1496 1498 1499 1500 1501 1501 1502 1502 1502 1502 1502 1502 1502 1502 1502 1503
1466 1466 1466 1466 1466 1466 1467 1467 1467 1468 1469 1470 1470 1471 1472 1473 1474 1475 1476 1477 1478 1479 1481 1484 1486 1488 1490 1492 1493 1495 1495 1496 1497 1497 1498 1498 1497 1497 1497 1497 1497 1498 1498
1468 1467 1467 1467 1467 1467 1467 1467 1467 1468 1468 1468 1469 1469 1469 1470 1470 1471 1472 1473 1474 1475 1477 1479 1481 1483 1485 1487 1488 1490 1491 1492 1492 1493 1493 1493 1493 1493 1493 1493 1493 1493 1494
1469 1469 1469 1468 1468 1467 1467 1467 1467 1467 1466 1466 1466 1466 1467 1467 1467 1468 1468 1469 1470 1471 1473 1475 1477 1479 1481 1482 1484 1485 1486 1487 1487 1488 1488 1488 1489 1489 1489 1489 1489 1489 1490
1471 1470 1470 1469 1469 1468 1467 1467 1466 1465 1465 1464 1464 1464 1464 1463 1463 1464 1464 1465 1466 1467 1469 1471 1472 1474 1476 1478 1479 1480 1481 1482 1483 1483 1484 1484 1484 1484 1485 1485 1485 1485 1486
1473 1472 1471 1470 1468 1467 1466 1465 1465 1463 1462 1462 1461 1460 1460 1460 1459 1459 1460 1461 1462 1463 1465 1466 1468 1469 1471 1473 1474 1476 1477 1477 1478 1478 1479 1479 1480 1480 1481 1481 1481 1482 1482
1473 1472 1471 1469 1468 1467 1466 1464 1462 1461 1460 1459 1458 1457 1456 1456 1456 1456 1456 1457 1458 1459 1460 1461 1463 1464 1466 1468 1470 1471 1472 1473 1473 1474 1474 1475 1475 1476 1477 1477 1477 1478 1478
1472 1471 1470 1468 1467 1465 1464 1462 1460 1459 1458 1456 1455 1454 1453 1452 1452 1452 1452 1453 1453 1454 1455 1456 1458 1459 1461 1463 1464 1466 1467 1468 1468 1469 1470 1471 1471 1472 1472 1473 1473 1474 1474
1472 1470 1468 1467 1465 1463 1461 1460 1458 1456 1455 1453 1452 1450 1449 1448 1448 1448 1448 1448 1449 1449 1451 1452 1453 1454 1456 1458 1459 1461 1462 1463 1463 1464 1465 1466 1467 1467 1468 1469 1470 1471 1471
1471 1469 1467 1465 1463 1461 1459 1457 1455 1453 1451 1450 1448 1446 1445 1444 1444 1443 1443 1443 1444 1445 1446 1446 1448 1449 1451 1452 1454 1455 1456 1458 1459 1459 1461 1462 1462 1463 1464 1465 1466 1467 1468
1469 1467 1465 1463 1461 1459 1457 1454 1452 1450 1448 1446 1444 1442 1441 1440 1439 1438 1438 1438 1439 1439 1440 1441 1443 1444 1445 1447 1448 1450 1451 1452 1453 1454 1456 1457 1458 1458 1460 1461 1463 1464 1465
1467 1465 1463 1461 1459 1456 1454 1451 1449 1447 1444 1442 1439 1437 1436 1435 1434 1433 1433 1433 1433 1433 1434 1435 1436 1438 1439 1441 1442 1444 1446 1447 1448 1449 1451 1452 1453 1454 1456 1457 1459 1460 1461
1465 1463 1460 1458 1456 1453 1451 1448 1446 1443 1440 1438 1435 1433 1431 1430 1429 1428 1428 1427 1427 1428 1428 1429 1430 1432 1433 1435 1436 1438 1440 1441 1443 1444 1446 1447 1448 1450 1452 1453 1454 1456 1457
1462 1460 1457 1455 1453 1450 1448 1445 1443 1440 1437 1434 1431 1429 1427 1425 1424 1423 1422 1422 1422 1422 1422 1423 1424 1425 1427 1428 1430 1431 1433 1435 1437 1439 1441 1442 1444 1445 1447 1448 1449 1451 1452
1459 1457 1455 1452 1450 1447 1444 1442 1439 1436 1433 1430 1428 1425 1423 1421 1419 1418 1417 1417 1416 1417 1417 1417 1418 1419 1420 1422 1424 1425 1427 1429 1431 1433 1435 1437 1438 1440 1441 1443 1444 1445 1447
1456 1454 1451 1449 1446 1443 1440 1437 1435 1432 1429 1426 1424 1421 1419 1417 1415 1413 1412 1411 1412 1411 1411 1412 1413 1413 1415 1417 1418 1420 1422 1424 1426 1428 1429 1431 1432 1434 1435 1437 1438 1440 1441